TimeCST,TemperatureF,Dew PointF,Humidity,Sea Level PressureIn,VisibilityMPH,Wind Direction,Wind SpeedMPH,Gust SpeedMPH,PrecipitationIn,Events,Conditions,WindDirDegrees,DateUTC
12:15 AM,53.6,39.2,58,30.08,10.0,South,13.8,21.9,N/A,,Overcast,180,2013-11-06 06:15:00
12:35 AM,53.6,41.0,62,30.08,10.0,South,16.1,-,N/A,,Overcast,180,2013-11-06 06:35:00
12:55 AM,53.6,42.8,67,30.07,10.0,South,16.1,21.9,N/A,,Overcast,180,2013-11-06 06:55:00
1:15 AM,55.4,41.0,58,30.06,10.0,South,16.1,-,N/A,,Overcast,180,2013-11-06 07:15:00
1:35 AM,-9999,-9999,N/A,30.05,10.0,South,17.3,20.7,N/A,,Overcast,180,2013-11-06 07:35:00
1:55 AM,-9999,-9999,N/A,30.04,10.0,South,15.0,21.9,N/A,,Mostly Cloudy,180,2013-11-06 07:55:00
2:15 AM,-9999,-9999,N/A,30.03,10.0,South,16.1,21.9,N/A,,Overcast,190,2013-11-06 08:15:00
2:35 AM,-9999,-9999,N/A,30.02,10.0,South,15.0,23.0,N/A,,Mostly Cloudy,190,2013-11-06 08:35:00
2:55 AM,-9999,-9999,N/A,30.01,10.0,South,16.1,21.9,N/A,,Mostly Cloudy,190,2013-11-06 08:55:00
3:15 AM,-9999,-9999,N/A,30.01,10.0,SSW,12.7,-,N/A,,Mostly Cloudy,200,2013-11-06 09:15:00
3:35 AM,-9999,-9999,N/A,30.01,10.0,SSW,13.8,-,N/A,,Mostly Cloudy,200,2013-11-06 09:35:00
3:55 AM,-9999,-9999,N/A,30.00,10.0,South,13.8,-,N/A,,Partly Cloudy,190,2013-11-06 09:55:00
4:15 AM,-9999,-9999,N/A,29.99,10.0,South,13.8,19.6,N/A,,Partly Cloudy,190,2013-11-06 10:15:00
4:35 AM,55.4,46.4,72,29.99,10.0,South,15.0,-,N/A,,Partly Cloudy,190,2013-11-06 10:35:00
4:55 AM,55.4,46.4,72,29.99,10.0,South,13.8,-,N/A,,Scattered Clouds,190,2013-11-06 10:55:00
5:15 AM,55.4,46.4,72,29.99,10.0,South,17.3,23.0,N/A,,Scattered Clouds,190,2013-11-06 11:15:00
5:35 AM,55.4,46.4,72,29.98,10.0,South,16.1,25.3,N/A,,Mostly Cloudy,190,2013-11-06 11:35:00
5:55 AM,55.4,46.4,72,29.97,10.0,South,18.4,24.2,N/A,,Overcast,190,2013-11-06 11:55:00
6:15 AM,-9999,-9999,N/A,29.96,10.0,South,17.3,24.2,N/A,,Overcast,190,2013-11-06 12:15:00
6:35 AM,-9999,-9999,N/A,29.97,10.0,SSW,20.7,27.6,N/A,,Mostly Cloudy,200,2013-11-06 12:35:00
6:55 AM,55.4,46.4,72,29.97,10.0,SSW,16.1,27.6,0.01,,Mostly Cloudy,210,2013-11-06 12:55:00
7:15 AM,55.4,46.4,72,29.97,10.0,SSW,16.1,21.9,N/A,,Scattered Clouds,210,2013-11-06 13:15:00
7:35 AM,55.4,46.4,72,29.97,10.0,SSW,13.8,20.7,0.01,,Mostly Cloudy,210,2013-11-06 13:35:00
7:55 AM,55.4,46.4,72,29.97,10.0,SSW,12.7,20.7,0.01,,Mostly Cloudy,200,2013-11-06 13:55:00
8:15 AM,55.4,48.2,77,29.97,10.0,SSW,13.8,-,N/A,,Mostly Cloudy,200,2013-11-06 14:15:00
8:35 AM,55.4,46.4,72,29.97,10.0,SSW,19.6,31.1,0.01,,Mostly Cloudy,210,2013-11-06 14:35:00
8:55 AM,55.4,48.2,77,29.96,10.0,SSW,20.7,31.1,0.01,,Overcast,210,2013-11-06 14:55:00
9:15 AM,55.4,48.2,77,29.96,10.0,SSW,21.9,31.1,N/A,,Mostly Cloudy,210,2013-11-06 15:15:00
9:35 AM,55.4,48.2,77,29.96,10.0,SSW,23.0,29.9,N/A,,Overcast,200,2013-11-06 15:35:00
9:55 AM,55.4,48.2,77,29.95,10.0,SSW,21.9,29.9,0.01,,Overcast,200,2013-11-06 15:55:00
10:15 AM,53.6,48.2,82,29.95,5.0,SSW,20.7,32.2,N/A,,Overcast,210,2013-11-06 16:15:00
10:35 AM,53.6,50.0,88,29.95,8.0,SSW,23.0,32.2,N/A,,Overcast,210,2013-11-06 16:35:00
10:55 AM,53.6,50.0,88,29.95,8.0,SW,24.2,32.2,N/A,,Overcast,220,2013-11-06 16:55:00
11:15 AM,53.6,50.0,88,29.94,10.0,SW,20.7,28.8,N/A,,Overcast,220,2013-11-06 17:15:00
11:35 AM,53.6,50.0,88,29.92,10.0,SSW,20.7,32.2,N/A,,Overcast,210,2013-11-06 17:35:00
11:55 AM,53.6,50.0,88,29.91,9.0,SSW,19.6,31.1,0.01,,Overcast,210,2013-11-06 17:55:00
12:15 PM,55.4,50.0,82,29.89,10.0,SSW,18.4,24.2,N/A,,Overcast,210,2013-11-06 18:15:00
12:35 PM,55.4,51.8,88,29.85,10.0,South,20.7,28.8,N/A,,Overcast,190,2013-11-06 18:35:00
12:55 PM,-9999,-9999,N/A,29.91,10.0,SW,20.7,29.9,N/A,,Overcast,230,2013-11-06 18:55:00
1:15 PM,-9999,-9999,N/A,29.92,10.0,WSW,20.7,34.5,N/A,,Overcast,240,2013-11-06 19:15:00
1:35 PM,-9999,-9999,N/A,29.91,10.0,WSW,23.0,31.1,N/A,,Overcast,240,2013-11-06 19:35:00
1:55 PM,-9999,-9999,N/A,29.92,10.0,SW,19.6,32.2,N/A,,Overcast,230,2013-11-06 19:55:00
2:15 PM,-9999,-9999,N/A,29.92,10.0,SW,21.9,28.8,N/A,,Overcast,230,2013-11-06 20:15:00
2:35 PM,-9999,-9999,N/A,29.92,8.0,WSW,19.6,26.5,N/A,,Overcast,240,2013-11-06 20:35:00
2:55 PM,-9999,-9999,N/A,29.92,10.0,WSW,16.1,23.0,N/A,,Overcast,240,2013-11-06 20:55:00
3:15 PM,-9999,-9999,N/A,29.92,9.0,WSW,17.3,24.2,N/A,,Overcast,240,2013-11-06 21:15:00
3:35 PM,-9999,-9999,N/A,29.93,2.5,WSW,21.9,26.5,N/A,,Overcast,240,2013-11-06 21:35:00
3:55 PM,-9999,-9999,N/A,29.93,2.0,West,19.6,27.6,0.01,,Overcast,280,2013-11-06 21:55:00
4:15 PM,50.0,44.6,82,29.95,3.0,West,21.9,28.8,N/A,,Overcast,280,2013-11-06 22:15:00
4:35 PM,48.2,44.6,87,29.96,1.8,WNW,19.6,28.8,N/A,,Overcast,290,2013-11-06 22:35:00
4:55 PM,46.4,42.8,87,29.99,7.0,WNW,23.0,26.5,0.01,,Overcast,290,2013-11-06 22:55:00
5:15 PM,44.6,41.0,87,29.99,10.0,WNW,17.3,28.8,N/A,,Overcast,290,2013-11-06 23:15:00
5:35 PM,44.6,41.0,87,30.02,10.0,WNW,19.6,25.3,N/A,,Overcast,290,2013-11-06 23:35:00
5:55 PM,44.6,41.0,87,30.02,9.0,WNW,19.6,26.5,N/A,,Overcast,290,2013-11-06 23:55:00
6:15 PM,44.6,39.2,81,30.02,10.0,WNW,19.6,27.6,N/A,,Overcast,300,2013-11-07 00:15:00
6:35 PM,44.6,39.2,81,30.03,10.0,WNW,16.1,25.3,0.01,,Overcast,300,2013-11-07 00:35:00
6:55 PM,42.8,39.2,87,30.03,10.0,NW,15.0,23.0,0.02,,Overcast,310,2013-11-07 00:55:00
7:15 PM,42.8,39.2,87,30.06,10.0,NW,16.1,-,N/A,,Overcast,310,2013-11-07 01:15:00
7:35 PM,42.8,37.4,81,30.04,10.0,NW,16.1,24.2,N/A,,Overcast,310,2013-11-07 01:35:00
7:55 PM,42.8,37.4,81,30.05,10.0,NW,13.8,24.2,N/A,,Overcast,310,2013-11-07 01:55:00
8:15 PM,42.8,37.4,81,30.06,10.0,NW,15.0,-,N/A,,Overcast,310,2013-11-07 02:15:00
8:35 PM,42.8,37.4,81,30.07,5.0,NW,13.8,-,N/A,,Overcast,310,2013-11-07 02:35:00
8:55 PM,42.8,37.4,81,30.07,4.0,NW,12.7,19.6,N/A,,Overcast,310,2013-11-07 02:55:00
9:15 PM,42.8,37.4,81,30.07,8.0,NW,12.7,-,N/A,,Overcast,310,2013-11-07 03:15:00
9:35 PM,42.8,37.4,81,30.09,10.0,NW,11.5,-,N/A,,Overcast,310,2013-11-07 03:35:00
9:55 PM,42.8,37.4,81,30.09,8.0,NW,11.5,-,N/A,,Overcast,310,2013-11-07 03:55:00
10:15 PM,42.8,35.6,76,30.09,10.0,NW,13.8,-,N/A,,Overcast,310,2013-11-07 04:15:00
10:35 PM,42.8,37.4,81,30.09,10.0,NW,9.2,-,N/A,,Overcast,310,2013-11-07 04:35:00
10:55 PM,42.8,35.6,76,30.09,10.0,NW,8.1,-,N/A,,Overcast,310,2013-11-07 04:55:00
11:15 PM,42.8,35.6,76,30.09,10.0,NW,8.1,-,N/A,,Overcast,310,2013-11-07 05:15:00
11:35 PM,42.8,35.6,76,30.09,10.0,NW,12.7,17.3,N/A,,Overcast,310,2013-11-07 05:35:00
11:55 PM,42.8,35.6,76,30.11,10.0,WNW,11.5,-,N/A,,Overcast,300,2013-11-07 05:55:00